This demonstration page uses our WeatherBlox Daily Observations layout. Learn more.

Left ArrowRight Arrow

31.31129, -92.44514

Hourly Observations for October 21, 2015

Temp ( °F °C ) Dew Point ( °F °C ) Humidity (%) Winds ( mph kmh ) Pressure ( in mb ) Visibility ( mi km ) Precip ( " mm )
12:53 am 00:53 Clear 69 20.6 65 18.3 87 87 SE 9 15 30.16 1021 9 14 0.00 0.00
1:53 am 01:53 Mostly Clear 68 20 65 18.3 90 90 SE 7 11 30.15 1021 9 14 0.00 0.00
2:53 am 02:53 Clear 68 20 65 18.3 90 90 ESE 7 11 30.15 1021 9 14 0.00 0.00
3:53 am 03:53 Clear 67 19.4 64 17.8 91 91 SE 7 11 30.15 1021 9 14 0.00 0.00
4:53 am 04:53 Clear 66 18.9 64 17.8 93 93 E 5 7 30.16 1021 8 13 0.00 0.00
5:53 am 05:53 Mostly Clear 66 18.9 64 17.8 93 93 E 5 7 30.17 1022 8 13 0.00 0.00
6:53 am 06:53 Clear 65 18.3 63 17.2 93 93 E 6 9 30.19 1022 7 11 0.00 0.00
7:53 am 07:53 Sunny with Mist and Fog 65 18.3 63 17.2 93 93 E 6 9 30.20 1023 6 10 0.00 0.00
8:53 am 08:53 Sunny 69 20.6 64 17.8 84 84 ESE 8 13 30.22 1024 9 14 0.00 0.00
9:53 am 09:53 Sunny 74 23.3 64 17.8 71 71 SE 10 17 30.23 1024 10 16 0.00 0.00
10:53 am 10:53 Sunny 79 26.1 64 17.8 60 60 ESE 12 19 30.23 1024 10 16 0.00 0.00
11:53 am 11:53 Sunny 81 27.2 63 17.2 54 54 SSE 9 15 30.22 1023 10 16 0.00 0.00
12:53 pm 12:53 Sunny 83 28.3 61 16.1 48 48 E 8 13 30.19 1022 10 16 0.00 0.00
1:53 pm 13:53 Sunny 85 29.4 59 15 42 42 E 7 11 30.16 1021 10 16 0.00 0.00
2:53 pm 14:53 Sunny 85 29.4 58 14.4 40 40 E 10 17 30.13 1020 10 16 0.00 0.00
3:53 pm 15:53 Mostly Sunny 85 29.4 56 13.3 37 37 E 10 17 30.12 1020 10 16 0.00 0.00
4:53 pm 16:53 Sunny 83 28.3 56 13.3 40 40 E 10 17 30.11 1020 10 16 0.00 0.00
5:53 pm 17:53 Sunny 81 27.2 57 13.9 44 44 E 8 13 30.12 1020 10 16 0.00 0.00
6:53 pm 18:53 Clear 77 25 58 14.4 52 52 ENE 6 9 30.12 1020 10 16 0.00 0.00
7:53 pm 19:53 Clear 74 23.3 59 15 60 60 ENE 6 9 30.14 1021 10 16 0.00 0.00
8:53 pm 20:53 Clear 71 21.7 60 15.6 68 68 E 3 6 30.16 1021 10 16 0.00 0.00
9:53 pm 21:53 Clear 69 20.6 59 15 70 70 SE 7 11 30.16 1021 10 16 0.00 0.00
10:53 pm 22:53 Clear 73 22.8 63 17.2 71 71 SE 9 15 30.17 1022 10 16 0.00 0.00
11:53 pm 23:53 Clear 71 21.7 65 18.3 81 81 SE 8 13 30.16 1021 10 16 0.00 0.00

Powered by AerisWeather